Home > Weather > Marengo > Past weeks

Flag for USA Weather for the Past 2 Weeks in Marengo, Indiana, USA

Now
70 °F

Scattered clouds.


Feels Like: 77 °F
Forecast: 48 / 72 °F
Wind: 9 mph from Northwest

Location: Bowling Green-Warren County Regional Airport

Current Time: May 6, 2016 at 3:19:09 PM

Latest Report: May 6, 2016 at 2:53 PM


Visibility: 10 mi

Pressure: 29.99 "Hg

Humidity: 38%

Dew Point: 43 °F

Location of MarengoLocation

Historic Weather in Marengo — Graph

°F

Marengo Temperature Yesterday

Maximum temperature yesterday: 60 °F (at 3:53 PM)
Minimum temperature yesterday: 47 °F (at 5:53 AM)
Average temperature yesterday: 53 °F

High & Low Weather Summary for the Past Weeks

 TemperatureHumidityPressure
High86 °F (Apr 26, 4:53 PM)97% (Apr 22, 5:53 AM)30.13 "Hg (Apr 22, 5:53 AM)
Low47 °F (Apr 24, 6:53 AM)32% (Apr 24, 4:53 PM)29.69 "Hg (May 4, 3:53 PM)
Average65 °F71%29.91 "Hg
* Reported Apr 21 1:53 PM — May 6 1:53 PM, Marengo, Weather by CustomWeather, © 2016

Note: Actual official high and low records may vary slightly from our data, if they occured in-between our weather recording intervals... More about our weather records

Advertising

Marengo Weather History for the Previous 24 Hours

Scroll right to see more
 ConditionsComfort  
Time TempWeatherWind HumidityBarometerVisibility
1:53 PM
Fri, May 6
70 °FPassing clouds.8 mph38%30.01 "Hg10 mi
12:53 PM68 °FPassing clouds.7 mph39%30.02 "Hg10 mi
11:53 AM67 °FSunny.8 mph44%30.04 "Hg10 mi
10:53 AM63 °FSunny.3 mph54%30.03 "Hg10 mi
9:53 AM59 °FSunny.5 mph60%30.03 "Hg10 mi
8:53 AM56 °FSunny.3 mph67%30.02 "Hg10 mi
7:53 AM50 °FSunny.3 mph83%30.01 "Hg10 mi
6:53 AM49 °FSunny.No wind84%29.98 "Hg10 mi
5:53 AM50 °FClear.5 mph83%29.97 "Hg10 mi
4:53 AM50 °FClear.5 mph83%29.96 "Hg10 mi
3:53 AM51 °FClear.3 mph80%29.95 "Hg10 mi
2:53 AM51 °FPassing clouds.3 mph80%29.96 "Hg10 mi
1:53 AM51 °FPassing clouds.5 mph80%29.97 "Hg10 mi
12:53 AM50 °FPassing clouds.3 mph83%29.97 "Hg10 mi
11:53 PM
Thu, May 5
50 °FClear.3 mph83%29.96 "Hg10 mi
10:53 PM52 °FPassing clouds.3 mph77%29.97 "Hg10 mi
9:53 PM52 °FClear.3 mph77%29.95 "Hg10 mi
8:53 PM55 °FPassing clouds.5 mph67%29.95 "Hg10 mi
7:53 PM56 °FMostly cloudy.3 mph65%29.94 "Hg10 mi
6:53 PM57 °FOvercast.7 mph60%29.93 "Hg10 mi
5:53 PM58 °FOvercast.10 mph56%29.93 "Hg10 mi
4:53 PM59 °FOvercast.12 mph51%29.91 "Hg10 mi
3:53 PM60 °FPartly sunny.8 mph47%29.90 "Hg10 mi
Weather by CustomWeather, © 2016

See weather overviewHow to use our weather pages